When you browse on this site, cookies collect data to enhance your experience and personalize the content and advertising you see.
Visit our Privacy Policy to learn more. By continuing to use the site, you agree to this use of cookies and data.
  • în România
  • Lista ţărilor
  • Pe 7 zile
  • Temperatura apei
  • Meteo pe hartă
  • Widget-uri
  • user-avatar
    Intrare

    Meteo pe oră la Francistown

    Astăzi, 14 Decembrie, Sâmbătă

    Timp Temperatura Precipitaţii Vânt Presiune Umiditate
    00:00 +22°C° 0 mm 5 m/s 678 mmHg 71%
    01:00 +21°C° 0 mm 5 m/s 678 mmHg 73%
    02:00 +21°C° 0 mm 6 m/s 678 mmHg 75%
    03:00 +20°C° 0 mm 5 m/s 677 mmHg 77%
    04:00 +20°C° 0 mm 5 m/s 677 mmHg 79%
    05:00 +19°C° 0 mm 5 m/s 677 mmHg 81%
    06:00 +21°C° 0 mm 5 m/s 677 mmHg 74%
    07:00 +22°C° 0 mm 5 m/s 678 mmHg 67%
    08:00 +25°C° 0 mm 5 m/s 678 mmHg 60%
    09:00 +27°C° 0 mm 5 m/s 679 mmHg 49%
    10:00 +30°C° 0 mm 5 m/s 679 mmHg 39%
    11:00 +34°C° 0 mm 4 m/s 679 mmHg 28%
    12:00 +35°C° 0 mm 4 m/s 678 mmHg 25%
    13:00 +36°C° 0 mm 4 m/s 678 mmHg 22%
    14:00 +37°C° 0 mm 4 m/s 677 mmHg 19%
    15:00 +37°C° 0 mm 4 m/s 677 mmHg 20%
    16:00 +36°C° 0 mm 4 m/s 676 mmHg 21%
    17:00 +36°C° 0 mm 4 m/s 676 mmHg 21%
    18:00 +34°C° 0 mm 4 m/s 676 mmHg 26%
    19:00 +32°C° 0 mm 4 m/s 676 mmHg 31%
    20:00 +29°C° 0 mm 4 m/s 676 mmHg 36%
    21:00 +28°C° 0 mm 4 m/s 677 mmHg 40%
    22:00 +27°C° 0 mm 4 m/s 677 mmHg 44%
    23:00 +26°C° 0 mm 4 m/s 677 mmHg 48%

    Mâine, 15 Decembrie, Duminică

    Timp Temperatura Precipitaţii Vânt Presiune Umiditate
    00:00 +26°C° 0 mm 4 m/s 677 mmHg 51%
    01:00 +25°C° 0 mm 4 m/s 676 mmHg 54%
    02:00 +24°C° 0 mm 3 m/s 676 mmHg 57%
    03:00 +24°C° 0 mm 3 m/s 676 mmHg 58%
    04:00 +24°C° 0 mm 3 m/s 676 mmHg 59%
    05:00 +22°C° 0 mm 3 m/s 676 mmHg 59%
    06:00 +25°C° 0 mm 4 m/s 677 mmHg 52%
    07:00 +27°C° 0 mm 4 m/s 677 mmHg 45%
    08:00 +29°C° 0 mm 5 m/s 678 mmHg 38%
    09:00 +32°C° 0 mm 4 m/s 678 mmHg 32%
    10:00 +35°C° 0 mm 4 m/s 678 mmHg 27%
    11:00 +37°C° 0 mm 3 m/s 678 mmHg 21%
    12:00 +38°C° 0 mm 3 m/s 677 mmHg 20%
    13:00 +38°C° 0 mm 3 m/s 677 mmHg 18%
    14:00 +39°C° 0 mm 3 m/s 676 mmHg 16%
    15:00 +39°C° 0 mm 3 m/s 675 mmHg 16%
    16:00 +40°C° 0 mm 4 m/s 675 mmHg 16%
    17:00 +40°C° 0 mm 4 m/s 675 mmHg 16%
    18:00 +37°C° 0 mm 4 m/s 675 mmHg 19%
    19:00 +35°C° 0 mm 3 m/s 675 mmHg 23%
    20:00 +32°C° 0 mm 2 m/s 675 mmHg 26%
    21:00 +33°C° 0 mm 3 m/s 675 mmHg 26%
    22:00 +31°C° 0 mm 3 m/s 675 mmHg 27%
    23:00 +31°C° 0 mm 3 m/s 675 mmHg 28%

    Poimâine, 16 Decembrie, Luni

    Timp Temperatura Precipitaţii Vânt Presiune Umiditate
    00:00 +30°C° 0 mm 2 m/s 675 mmHg 30%
    01:00 +29°C° 0 mm 2 m/s 674 mmHg 32%
    02:00 +28°C° 0 mm 1 m/s 674 mmHg 34%
    03:00 +28°C° 0 mm 2 m/s 674 mmHg 35%
    04:00 +27°C° 0 mm 2 m/s 675 mmHg 36%
    05:00 +27°C° 0 mm 3 m/s 675 mmHg 37%
    06:00 +27°C° 0 mm 4 m/s 676 mmHg 45%
    07:00 +27°C° 0 mm 6 m/s 676 mmHg 54%
    08:00 +27°C° 0 mm 7 m/s 677 mmHg 62%
    09:00 +27°C° 0 mm 8 m/s 677 mmHg 60%
    10:00 +28°C° 0 mm 8 m/s 678 mmHg 58%
    11:00 +29°C° 0 mm 8 m/s 678 mmHg 56%
    12:00 +31°C° 0 mm 8 m/s 678 mmHg 53%
    13:00 +31°C° 0 mm 8 m/s 677 mmHg 51%
    14:00 +32°C° 0 mm 8 m/s 677 mmHg 48%
    15:00 +31°C° 0 mm 8 m/s 676 mmHg 51%
    16:00 +29°C° 0 mm 8 m/s 676 mmHg 53%
    17:00 +28°C° 0 mm 8 m/s 675 mmHg 56%
    18:00 +27°C° 0 mm 8 m/s 676 mmHg 60%
    19:00 +24°C° 0 mm 7 m/s 676 mmHg 65%
    20:00 +23°C° 0 mm 7 m/s 676 mmHg 70%
    21:00 +22°C° 0 mm 7 m/s 677 mmHg 72%
    22:00 +21°C° 0 mm 7 m/s 677 mmHg 74%
    23:00 +20°C° 0 mm 7 m/s 678 mmHg 76%

    17 Decembrie, Marţi

    Timp Temperatura Precipitaţii Vânt Presiune Umiditate
    00:00 +21°C° 0 mm 7 m/s 677 mmHg 75%
    01:00 +21°C° 0 mm 7 m/s 677 mmHg 73%
    02:00 +21°C° 0 mm 7 m/s 677 mmHg 71%
    03:00 +20°C° 0 mm 6 m/s 677 mmHg 73%
    04:00 +20°C° 0 mm 5 m/s 677 mmHg 75%
    05:00 +19°C° 0 mm 5 m/s 677 mmHg 78%
    06:00 +20°C° 0 mm 5 m/s 677 mmHg 74%
    07:00 +21°C° 0 mm 5 m/s 678 mmHg 70%
    08:00 +22°C° 0 mm 5 m/s 678 mmHg 66%
    09:00 +25°C° 0 mm 5 m/s 678 mmHg 59%
    10:00 +27°C° 0 mm 4 m/s 678 mmHg 51%
    11:00 +29°C° 0 mm 4 m/s 679 mmHg 43%
    12:00 +32°C° 0 mm 4 m/s 678 mmHg 39%
    13:00 +33°C° 0 mm 4 m/s 677 mmHg 35%
    14:00 +35°C° 0 mm 4 m/s 677 mmHg 31%
    15:00 +35°C° 0 mm 4 m/s 677 mmHg 29%
    16:00 +35°C° 0 mm 4 m/s 676 mmHg 28%
    17:00 +35°C° 0 mm 4 m/s 676 mmHg 27%
    18:00 +33°C° 0 mm 5 m/s 676 mmHg 33%
    19:00 +30°C° 0 mm 5 m/s 676 mmHg 38%
    20:00 +28°C° 0 mm 5 m/s 676 mmHg 44%
    21:00 +27°C° 0 mm 5 m/s 676 mmHg 48%
    22:00 +26°C° 0 mm 4 m/s 676 mmHg 52%
    23:00 +25°C° 0 mm 4 m/s 676 mmHg 56%

    18 Decembrie, Miercuri

    Timp Temperatura Precipitaţii Vânt Presiune Umiditate
    00:00 +24°C° 0 mm 3 m/s 676 mmHg 59%
    01:00 +24°C° 0 mm 3 m/s 676 mmHg 62%
    02:00 +23°C° 0 mm 2 m/s 675 mmHg 65%
    03:00 +23°C° 0 mm 2 m/s 675 mmHg 66%
    04:00 +21°C° 0 mm 2 m/s 675 mmHg 68%
    05:00 +21°C° 0 mm 2 m/s 675 mmHg 70%
    06:00 +24°C° 0 mm 2 m/s 676 mmHg 62%
    07:00 +26°C° 0 mm 2 m/s 676 mmHg 54%
    08:00 +28°C° 0 mm 2 m/s 677 mmHg 46%
    09:00 +30°C° 0 mm 2 m/s 677 mmHg 39%
    10:00 +32°C° 0 mm 2 m/s 677 mmHg 32%
    11:00 +36°C° 0 mm 2 m/s 677 mmHg 24%
    12:00 +37°C° 0 mm 2 m/s 677 mmHg 22%
    13:00 +38°C° 0 mm 2 m/s 676 mmHg 19%
    14:00 +38°C° 0 mm 2 m/s 676 mmHg 16%
    15:00 +37°C° 0 mm 1 m/s 675 mmHg 16%
    16:00 +37°C° 0 mm 1 m/s 674 mmHg 16%
    17:00 +36°C° 0 mm 1 m/s 674 mmHg 16%
    18:00 +34°C° 0 mm 1 m/s 674 mmHg 20%
    19:00 +32°C° 0 mm 1 m/s 674 mmHg 24%
    20:00 +30°C° 0 mm 1 m/s 674 mmHg 27%
    21:00 +29°C° 0 mm 2 m/s 674 mmHg 28%
    22:00 +29°C° 0 mm 2 m/s 674 mmHg 29%
    23:00 +28°C° 0 mm 3 m/s 674 mmHg 30%

    19 Decembrie, Joi

    Timp Temperatura Precipitaţii Vânt Presiune Umiditate
    00:00 +27°C° 0 mm 2 m/s 674 mmHg 32%
    01:00 +27°C° 0 mm 1 m/s 674 mmHg 33%
    02:00 +26°C° 0 mm 1 m/s 674 mmHg 35%
    03:00 +26°C° 0 mm 1 m/s 674 mmHg 36%
    04:00 +25°C° 0 mm 2 m/s 674 mmHg 36%
    05:00 +25°C° 0 mm 2 m/s 674 mmHg 36%
    06:00 +27°C° 0 mm 3 m/s 675 mmHg 34%
    07:00 +29°C° 0 mm 4 m/s 676 mmHg 31%
    08:00 +32°C° 0 mm 5 m/s 676 mmHg 28%
    09:00 +34°C° 0 mm 4 m/s 676 mmHg 25%
    10:00 +35°C° 0 mm 4 m/s 676 mmHg 22%
    11:00 +37°C° 0 mm 3 m/s 676 mmHg 19%
    12:00 +38°C° 0 mm 2 m/s 676 mmHg 18%
    13:00 +38°C° 0 mm 2 m/s 675 mmHg 17%
    14:00 +39°C° 0 mm 2 m/s 674 mmHg 16%
    15:00 +39°C° 0 mm 1 m/s 674 mmHg 16%
    16:00 +37°C° 0 mm 1 m/s 673 mmHg 16%
    17:00 +37°C° 0 mm 1 m/s 673 mmHg 16%
    18:00 +35°C° 0 mm 1 m/s 673 mmHg 19%
    19:00 +33°C° 0 mm 1 m/s 673 mmHg 22%
    20:00 +32°C° 0 mm 2 m/s 673 mmHg 25%
    21:00 +31°C° 0 mm 2 m/s 673 mmHg 27%
    22:00 +30°C° 0 mm 3 m/s 674 mmHg 30%
    23:00 +29°C° 0 mm 3 m/s 674 mmHg 32%
    Arată mai mult